| time (UTC) | temp C | wind direction | speed KPH | gust KPH | rain 1hr cm | rain 24hr cm | rain mn cm | humidity % | barometer mb |
| 20260508121615 | 8 | 295 | 6.4 | 14.5 | 0.00 | 0.00 | 0.00 | 61 | 1007.7 |
| 20260508120051 | 7 | 318 | 6.4 | 16.1 | 0.00 | 0.00 | 0.00 | 63 | 1007.9 |
| 20260508114551 | 7 | 241 | 6.4 | 16.1 | 0.00 | 0.00 | 0.00 | 65 | 1007.9 |
| 20260508113044 | 6 | 309 | 4.8 | 14.5 | 0.00 | 0.00 | 0.00 | 67 | 1007.7 |
| 20260508111548 | 6 | 283 | 1.6 | 11.3 | 0.00 | 0.00 | 0.00 | 69 | 1007.6 |
| 20260508110042 | 5 | 318 | 3.2 | 9.7 | 0.00 | 0.00 | 0.00 | 70 | 1007.4 |
| 20260508104543 | 5 | 318 | 0.0 | 6.4 | 0.00 | 0.00 | 0.00 | 72 | 1007.3 |
| 20260508103043 | 4 | 318 | 0.0 | 6.4 | 0.00 | 0.00 | 0.00 | 74 | 1007.1 |
| 20260508101539 | 3 | 318 | 0.0 | 0.0 | 0.00 | 0.00 | 0.00 | 76 | 1006.8 |
| 20260508100034 | 3 | 318 | 0.0 | 0.0 | 0.00 | 0.00 | 0.00 | 75 | 1006.5 |
| 20260508094543 | 3 | 318 | 0.0 | 0.0 | 0.00 | 0.00 | 0.00 | 74 | 1006.3 |
| 20260508093030 | 3 | 318 | 0.0 | 3.2 | 0.00 | 0.00 | 0.00 | 72 | 1006.1 |
| 20260508091545 | 3 | 318 | 0.0 | 3.2 | 0.00 | 0.00 | 0.00 | 72 | 1006.0 |
| 20260508090039 | 3 | 318 | 0.0 | 3.2 | 0.00 | 0.00 | 0.00 | 71 | 1005.9 |
| 20260508084524 | 4 | 318 | 0.0 | 3.2 | 0.00 | 0.00 | 0.00 | 68 | 1005.9 |
| 20260508083023 | 5 | 318 | 3.2 | 6.4 | 0.00 | 0.00 | 0.00 | 67 | 1005.7 |
| 20260508081531 | 5 | 318 | 0.0 | 8.0 | 0.00 | 0.00 | 0.00 | 67 | 1005.8 |
| 20260508080143 | 5 | 318 | 1.6 | 4.8 | 0.00 | 0.00 | 0.00 | 66 | 1005.8 |
| 20260508074518 | 5 | 318 | 0.0 | 8.0 | 0.00 | 0.03 | 0.00 | 64 | 1005.7 |
| 20260508073017 | 5 | 318 | 1.6 | 6.4 | 0.00 | 0.03 | 0.00 | 64 | 1005.6 |
| 20260508071520 | 6 | 318 | 4.8 | 9.7 | 0.00 | 0.03 | 0.00 | 62 | 1005.6 |
| 20260508070013 | 6 | 318 | 3.2 | 16.1 | 0.00 | 0.03 | 0.00 | 61 | 1005.7 |
| 20260508064514 | 6 | 320 | 4.8 | 9.7 | 0.00 | 0.05 | 0.00 | 61 | 1005.7 |
| 20260508063009 | 6 | 321 | 6.4 | 9.7 | 0.00 | 0.05 | 0.00 | 60 | 1005.9 |
| 20260508061509 | 6 | 321 | 4.8 | 9.7 | 0.00 | 0.05 | 0.00 | 60 | 1005.9 |
| 20260508060013 | 6 | 326 | 3.2 | 11.3 | 0.00 | 0.05 | 0.00 | 60 | 1006.0 |
| 20260508054503 | 6 | 318 | 6.4 | 12.9 | 0.00 | 0.51 | 0.00 | 60 | 1006.1 |
| 20260508053002 | 6 | 314 | 1.6 | 9.7 | 0.00 | 0.51 | 0.00 | 61 | 1006.3 |
| 20260508051600 | 6 | 314 | 1.6 | 6.4 | 0.00 | 0.51 | 0.00 | 61 | 1006.4 |
| 20260508051501 | 6 | 314 | 1.6 | 4.8 | 0.00 | 0.51 | 0.00 | 61 | 1006.4 |
| 20260508044600 | 6 | 314 | 3.2 | 8.0 | 0.00 | 0.56 | 0.00 | 60 | 1006.4 |
| 20260508043054 | 6 | 314 | 0.0 | 3.2 | 0.00 | 0.56 | 0.00 | 58 | 1006.5 |
| 20260508041552 | 6 | 314 | 1.6 | 8.0 | 0.00 | 0.56 | 0.00 | 57 | 1006.5 |
| 20260508040050 | 6 | 314 | 1.6 | 6.4 | 0.00 | 0.56 | 0.00 | 56 | 1006.7 |
| 20260508034547 | 7 | 314 | 0.0 | 6.4 | 0.00 | 0.56 | 0.56 | 55 | 1006.8 |
| 20260508033110 | 7 | 314 | 3.2 | 8.0 | 0.00 | 0.56 | 0.56 | 54 | 1006.8 |
| 20260508031547 | 7 | 314 | 1.6 | 8.0 | 0.00 | 0.56 | 0.56 | 53 | 1006.8 |
| 20260508030100 | 7 | 314 | 3.2 | 11.3 | 0.00 | 0.56 | 0.56 | 52 | 1006.6 |
| 20260508024607 | 8 | 314 | 3.2 | 9.7 | 0.00 | 0.58 | 0.56 | 51 | 1006.7 |
| 20260508023045 | 8 | 314 | 8.0 | 11.3 | 0.00 | 0.58 | 0.56 | 51 | 1006.5 |
| 20260508021545 | 8 | 316 | 8.0 | 12.9 | 0.00 | 0.58 | 0.56 | 50 | 1006.5 |
| 20260508014553 | 8 | 305 | 4.8 | 9.7 | 0.00 | 0.66 | 0.56 | 52 | 1006.5 |
| 20260508013047 | 8 | 305 | 4.8 | 12.9 | 0.00 | 0.66 | 0.56 | 52 | 1006.4 |
| 20260508011546 | 9 | 314 | 6.4 | 14.5 | 0.00 | 0.66 | 0.56 | 52 | 1006.3 |
| 20260508010042 | 9 | 314 | 6.4 | 16.1 | 0.00 | 0.66 | 0.56 | 52 | 1006.3 |
| 20260508004542 | 10 | 333 | 8.0 | 17.7 | 0.00 | 0.66 | 0.56 | 50 | 1006.1 |
| 20260508003043 | 10 | 339 | 9.7 | 20.9 | 0.00 | 0.66 | 0.56 | 48 | 1005.9 |
| 20260508001550 | 11 | 325 | 8.0 | 17.7 | 0.00 | 0.66 | 0.56 | 48 | 1005.6 |
| 20260508000040 | 11 | 308 | 8.0 | 12.9 | 0.00 | 0.66 | 0.56 | 46 | 1005.3 |
| 20260507234539 | 12 | 318 | 9.7 | 19.3 | 0.00 | 0.79 | 0.56 | 45 | 1005.1 |
| 20260507233039 | 12 | 312 | 8.0 | 14.5 | 0.00 | 0.79 | 0.56 | 47 | 1004.7 |
| 20260507231538 | 12 | 320 | 8.0 | 17.7 | 0.00 | 0.79 | 0.56 | 47 | 1004.5 |
| 20260507230038 | 13 | 335 | 8.0 | 16.1 | 0.00 | 0.79 | 0.56 | 43 | 1004.1 |
| 20260507224538 | 14 | 259 | 11.3 | 20.9 | 0.00 | 1.14 | 0.56 | 40 | 1003.8 |
| 20260507223038 | 14 | 271 | 8.0 | 16.1 | 0.00 | 1.14 | 0.56 | 41 | 1003.4 |
| 20260507221536 | 15 | 315 | 8.0 | 16.1 | 0.00 | 1.14 | 0.56 | 41 | 1003.3 |
| 20260507220034 | 15 | 314 | 4.8 | 12.9 | 0.00 | 1.14 | 0.56 | 41 | 1003.2 |
| 20260507214531 | 13 | 298 | 0.0 | 11.3 | 0.00 | 1.35 | 0.56 | 68 | 1003.3 |
| 20260507213039 | 13 | 314 | 0.0 | 6.4 | 0.00 | 1.35 | 0.56 | 70 | 1003.2 |
| 20260507211544 | 14 | 285 | 0.0 | 9.7 | 0.00 | 1.35 | 0.56 | 67 | 1003.3 |
| 20260507210029 | 13 | 121 | 0.0 | 1.6 | 0.00 | 1.35 | 0.56 | 72 | 1003.2 |
| 20260507204528 | 13 | 121 | 0.0 | 0.0 | 0.00 | 1.45 | 0.56 | 71 | 1003.0 |
| 20260507203028 | 13 | 122 | 0.0 | 3.2 | 0.00 | 1.45 | 0.56 | 71 | 1003.0 |
| 20260507201536 | 13 | 122 | 0.0 | 3.2 | 0.00 | 1.45 | 0.56 | 71 | 1003.0 |
| 20260507200034 | 12 | 121 | 0.0 | 6.4 | 0.00 | 1.45 | 0.56 | 73 | 1003.1 |
| 20260507194526 | 12 | 129 | 0.0 | 9.7 | 0.00 | 1.45 | 0.56 | 74 | 1003.2 |
| 20260507193026 | 13 | 120 | 3.2 | 9.7 | 0.00 | 1.45 | 0.56 | 73 | 1003.2 |
| 20260507191526 | 12 | 127 | 1.6 | 8.0 | 0.00 | 1.45 | 0.56 | 74 | 1003.3 |
| 20260507190023 | 12 | 145 | 0.0 | 6.4 | 0.00 | 1.45 | 0.56 | 76 | 1003.3 |
| 20260507184522 | 12 | 147 | 0.0 | 3.2 | 0.00 | 1.45 | 0.56 | 75 | 1003.7 |
| 20260507183022 | 12 | 139 | 1.6 | 4.8 | 0.00 | 1.45 | 0.56 | 75 | 1003.8 |
| 20260507181522 | 12 | 199 | 4.8 | 9.7 | 0.00 | 1.45 | 0.56 | 74 | 1003.9 |
| 20260507180037 | 12 | 216 | 8.0 | 11.3 | 0.00 | 1.45 | 0.56 | 72 | 1003.9 |
| 20260507174524 | 12 | 189 | 3.2 | 11.3 | 0.00 | 1.45 | 0.56 | 73 | 1004.1 |
| 20260507173026 | 13 | 158 | 3.2 | 11.3 | 0.00 | 1.45 | 0.56 | 71 | 1004.1 |
| 20260507171519 | 13 | 178 | 6.4 | 11.3 | 0.00 | 1.45 | 0.56 | 69 | 1004.1 |
| 20260507170034 | 13 | 113 | 3.2 | 9.7 | 0.00 | 1.45 | 0.56 | 74 | 1004.1 |
| 20260507164519 | 13 | 172 | 4.8 | 9.7 | 0.00 | 1.45 | 0.56 | 71 | 1004.4 |
| 20260507163018 | 13 | 187 | 4.8 | 9.7 | 0.00 | 1.45 | 0.56 | 67 | 1004.5 |
| 20260507161519 | 13 | 125 | 1.6 | 8.0 | 0.00 | 1.45 | 0.56 | 67 | 1004.5 |
| 20260507160018 | 14 | 221 | 1.6 | 9.7 | 0.00 | 1.45 | 0.56 | 64 | 1004.6 |
| 20260507154516 | 14 | 89 | 3.2 | 8.0 | 0.00 | 1.45 | 0.56 | 64 | 1004.7 |
| 20260507153014 | 13 | 123 | 1.6 | 9.7 | 0.00 | 1.45 | 0.56 | 67 | 1004.8 |
| 20260507151517 | 13 | 174 | 3.2 | 8.0 | 0.00 | 1.45 | 0.56 | 67 | 1005.0 |
| 20260507150012 | 13 | 185 | 0.0 | 6.4 | 0.00 | 1.45 | 0.56 | 70 | 1005.0 |
| 20260507144510 | 12 | 148 | 1.6 | 6.4 | 0.00 | 1.45 | 0.56 | 71 | 1005.2 |
| 20260507143009 | 12 | 276 | 0.0 | 6.4 | 0.00 | 1.45 | 0.56 | 69 | 1005.4 |
| 20260507141505 | 12 | 18 | 3.2 | 9.7 | 0.00 | 1.45 | 0.56 | 70 | 1005.7 |
| 20260507140007 | 12 | 337 | 0.0 | 6.4 | 0.00 | 1.45 | 0.56 | 72 | 1005.7 |
| 20260507134503 | 11 | 195 | 0.0 | 9.7 | 0.00 | 1.45 | 0.56 | 73 | 1005.7 |
| 20260507133100 | 11 | 327 | 0.0 | 14.5 | 0.00 | 1.45 | 0.56 | 75 | 1005.7 |
| 20260507131558 | 11 | 309 | 3.2 | 11.3 | 0.00 | 1.45 | 0.56 | 77 | 1006.0 |
| 20260507130105 | 10 | 334 | 4.8 | 12.9 | 0.00 | 1.45 | 0.56 | 78 | 1005.7 |
| 20260507124600 | 10 | 310 | 3.2 | 14.5 | 0.00 | 1.45 | 0.56 | 79 | 1006.0 |
| 20260507123057 | 10 | 313 | 4.8 | 12.9 | 0.00 | 1.45 | 0.56 | 80 | 1005.9 |